Location: Gerlach
(40.6516°N, 119.3568°W)
Time: 15:11:55
(UTC-07:00)

A-11 Canister half - All Passes

Search period start: 25 September 2023 00:00
Search period end: 05 October 2023 00:00
Orbit: 1524 x 1684 km, 47.3° (Epoch: 25 September)

Date Brightness Start Highest point End Pass type
(mag) Time Alt. Az. Time Alt. Az. Time Alt. Az.
25 Sep - 12:46:09 10° S 12:52:41 22° SE 12:59:15 10° E daylight
25 Sep - 14:47:10 10° SW 14:56:22 71° SE 15:05:51 10° ENE daylight
25 Sep - 16:52:22 10° W 17:01:41 64° NNW 17:11:19 10° ENE daylight
25 Sep - 18:58:22 10° WNW 19:07:52 64° NNE 19:17:40 10° E visible
25 Sep - 21:03:39 10° WNW 21:13:18 73° SW 21:23:16 10° SE visible
25 Sep - 23:09:56 10° W 23:17:17 24° SW 23:24:45 10° S visible
26 Sep - 12:24:49 10° S 12:31:02 20° SE 12:37:19 10° E daylight
26 Sep - 14:25:30 10° SW 14:34:40 68° SE 14:44:04 10° ENE daylight
26 Sep - 16:30:36 10° W 16:39:55 65° NNW 16:49:32 10° ENE daylight
26 Sep - 18:36:37 10° WNW 18:46:04 63° NNE 18:55:50 10° E daylight
26 Sep - 20:41:55 10° WNW 20:51:34 76° SSW 21:01:32 10° SE visible
26 Sep - 22:48:03 10° WNW 22:55:36 26° SW 23:03:19 10° S visible
27 Sep - 12:03:31 10° SSE 12:09:24 19° SE 12:15:19 10° E daylight
27 Sep - 14:03:50 10° SW 14:12:59 65° SE 14:22:19 10° ENE daylight
27 Sep - 16:08:50 10° W 16:18:08 66° NNW 16:27:45 10° ENE daylight
27 Sep - 18:14:53 10° WNW 18:24:17 62° N 18:34:00 10° E daylight
27 Sep - 20:20:11 10° WNW 20:29:50 78° SSW 20:39:47 10° SE visible
27 Sep - 22:26:11 10° WNW 22:33:55 27° SW 22:41:51 10° S visible
28 Sep - 11:42:16 10° SSE 11:47:47 17° SE 11:53:19 10° E daylight
28 Sep - 13:42:12 10° SW 13:51:17 62° SE 14:00:33 10° ENE daylight
28 Sep - 15:47:04 10° W 15:56:23 67° NNW 16:05:58 10° ENE daylight
28 Sep - 17:53:07 10° WNW 18:02:29 61° N 18:12:11 10° E daylight
28 Sep - 19:58:27 10° WNW 20:08:05 81° SSW 20:18:03 10° SE visible
28 Sep - 22:04:20 10° WNW 22:12:15 29° SW 22:20:21 10° S visible
29 Sep - 11:21:03 10° SSE 11:26:09 16° SE 11:31:15 10° E daylight
29 Sep - 13:20:34 10° SW 13:29:36 60° SE 13:38:47 10° ENE daylight
29 Sep - 15:25:19 10° W 15:34:37 68° NNW 15:44:10 10° ENE daylight
29 Sep - 17:31:22 10° WNW 17:40:42 60° N 17:50:21 10° E daylight
29 Sep - 19:36:43 10° WNW 19:46:20 84° SSW 19:56:17 10° SE visible
29 Sep - 21:42:30 10° WNW 21:50:34 31° SW 21:58:51 10° S visible
30 Sep - 10:59:55 10° SSE 11:04:32 15° ESE 11:09:09 10° E daylight
30 Sep - 12:58:56 10° SW 13:07:54 57° SE 13:17:01 10° ENE daylight
30 Sep - 15:03:33 10° WSW 15:12:51 70° NNW 15:22:24 10° ENE daylight
30 Sep - 17:09:37 10° WNW 17:18:55 60° N 17:28:31 10° E daylight
30 Sep - 19:15:01 10° WNW 19:24:37 86° SSW 19:34:32 10° ESE visible
30 Sep - 21:20:40 10° WNW 21:28:53 32° SW 21:37:19 10° S visible
01 Oct - 10:38:52 10° SSE 10:42:54 14° ESE 10:46:56 10° E daylight
01 Oct - 12:37:19 10° SSW 12:46:13 54° SE 12:55:15 10° ENE daylight
01 Oct - 14:41:48 10° WSW 14:51:06 71° NNW 15:00:38 10° ENE daylight
01 Oct - 16:47:51 10° WNW 16:57:08 59° N 17:06:42 10° E daylight
01 Oct - 18:53:17 10° WNW 19:02:51 89° SSW 19:12:46 10° ESE visible
01 Oct - 20:58:52 10° WNW 21:07:12 34° SW 21:15:46 10° SSE visible
02 Oct - 10:17:57 10° SE 10:21:17 12° ESE 10:24:36 10° E daylight
02 Oct - 12:15:42 10° SSW 12:24:33 52° SE 12:33:30 10° ENE daylight
02 Oct - 14:20:03 10° WSW 14:29:20 73° NNW 14:38:51 10° ENE daylight
02 Oct - 16:26:06 10° WNW 16:35:21 59° N 16:44:53 10° E daylight
02 Oct - 18:31:33 10° WNW 18:41:06 89° NNE 18:51:00 10° ESE daylight
02 Oct - 20:37:04 10° WNW 20:45:31 36° SW 20:54:13 10° SSE visible
03 Oct - 09:57:17 10° SE 09:59:40 11° ESE 10:02:02 10° ESE daylight
03 Oct - 11:54:06 10° SSW 12:02:52 49° SE 12:11:43 10° ENE daylight
03 Oct - 13:58:17 10° WSW 14:07:35 75° NNW 14:17:06 10° ENE daylight
03 Oct - 16:04:20 10° WNW 16:13:34 59° N 16:23:04 10° E daylight
03 Oct - 18:09:50 10° WNW 18:19:22 87° NNE 18:29:13 10° ESE daylight
03 Oct - 20:15:16 10° WNW 20:23:50 38° SW 20:32:39 10° SSE visible
04 Oct - 11:32:30 10° SSW 11:41:12 47° SE 11:49:57 10° ENE daylight
04 Oct - 13:36:32 10° WSW 13:45:51 76° NNW 13:55:20 10° ENE daylight
04 Oct - 15:42:35 10° WNW 15:51:47 58° N 16:01:15 10° E daylight
04 Oct - 17:48:06 10° WNW 17:57:37 84° NNE 18:07:27 10° ESE daylight
04 Oct - 19:53:29 10° WNW 20:02:09 40° SW 20:11:04 10° SSE visible
